Date,TemperatureHighF,TemperatureAvgF,TemperatureLowF,DewpointHighF,DewpointAvgF,DewpointLowF,HumidityHigh,HumidityAvg,HumidityLow,PressureMaxIn,PressureMinIn,WindSpeedMaxMPH,WindSpeedAvgMPH,GustSpeedMaxMPH,PrecipitationSumIn
2013-3-1,35.7,32.7,30.9,31.5,29.8,28.4,96,89,75,29.63,29.49,9,3,16,0.00
2013-3-2,42.8,34.9,30.8,31.4,29.8,27.8,96,83,57,29.61,29.55,9,2,17,0.05
2013-3-3,42.3,35.6,30.2,33.7,29.6,26.4,96,80,62,29.57,29.48,8,2,13,0.05
2013-3-4,37.7,32.4,30.9,28.6,25.0,22.4,84,74,62,29.65,29.46,11,4,19,0.00
2013-3-5,43.9,37.0,30.7,34.7,30.3,23.3,89,77,65,30.07,29.65,10,3,20,0.00
2013-3-6,37.9,34.5,30.8,32.4,29.4,26.1,94,82,67,30.20,30.07,18,6,25,0.01
2013-3-7,35.3,32.8,30.8,27.4,25.0,23.9,87,73,65,30.16,30.03,15,7,24,0.00
2013-3-8,46.4,36.4,28.2,26.6,22.9,19.1,92,61,35,30.15,29.98,15,8,27,0.00
2013-3-9,50.3,35.6,22.1,30.1,23.1,19.7,97,63,31,30.34,30.15,11,3,18,0.00
2013-3-10,40.5,30.4,17.4,30.8,25.5,16.0,96,83,62,30.38,30.26,7,2,11,0.00
2013-3-11,44.9,37.5,29.9,37.8,33.7,27.9,96,86,69,30.27,30.10,8,3,13,0.00
2013-3-12,47.3,43.1,39.1,47.0,42.0,37.8,99,96,91,30.12,29.68,12,4,19,0.91
2013-3-13,49.3,40.9,27.8,47.0,36.7,26.0,99,86,62,29.70,29.62,11,2,15,0.01
2013-3-14,38.4,31.3,20.4,28.8,21.5,5.9,96,68,47,29.71,29.57,11,3,24,0.00
2013-3-15,36.1,25.3,15.9,24.9,11.6,4.4,89,57,35,29.76,29.56,10,3,18,0.00
2013-3-16,36.7,29.3,22.0,25.2,14.6,10.2,85,55,36,29.85,29.58,9,2,15,0.00
2013-3-17,31.8,23.0,13.5,15.3,8.2,-0.1,92,56,31,30.28,29.85,14,3,24,0.00
2013-3-18,36.5,24.7,9.1,22.7,9.0,-0.7,82,54,25,30.40,30.23,9,2,14,0.00
2013-3-19,30.7,27.5,22.3,29.1,25.3,20.8,96,92,76,30.23,29.63,13,5,22,0.00
2013-3-20,37.1,26.9,8.7,25.9,20.1,6.6,95,77,49,29.68,29.57,15,4,23,0.04
2013-3-21,40.9,28.5,10.4,23.0,17.5,7.8,96,66,35,29.73,29.56,9,3,13,0.01
2013-3-22,39.8,29.0,15.1,21.3,17.3,13.4,95,64,38,29.61,29.55,14,2,22,0.00
2013-3-23,41.4,32.5,23.3,23.4,19.9,14.7,79,60,41,29.63,29.46,15,5,27,0.00
2013-3-24,45.9,37.3,30.9,26.0,24.0,22.0,78,59,41,29.74,29.61,11,3,18,0.00
2013-3-25,42.4,34.5,24.2,33.4,27.5,21.3,91,76,61,29.73,29.55,8,2,16,0.00
2013-3-26,48.2,39.4,30.9,26.8,24.2,21.3,75,56,36,29.69,29.52,10,3,17,0.00
2013-3-27,48.6,38.0,24.4,35.6,29.3,21.8,95,73,45,29.82,29.67,11,2,21,0.14
2013-3-28,49.3,40.0,34.1,36.7,33.1,29.1,95,78,49,29.93,29.82,7,1,11,0.00
2013-3-29,54.0,45.5,37.4,36.8,31.8,27.7,78,60,42,29.97,29.89,12,3,18,0.00
2013-3-30,54.4,40.6,25.7,31.7,25.2,14.6,93,60,23,30.04,29.93,11,2,18,0.00
2013-3-31,49.1,37.7,20.6,38.3,28.1,18.6,94,71,34,30.07,29.80,12,3,20,0.00